Weather in Lopatino

Russia / Saratov Oblast     52°08′31″N   43°30′17″E
temp.,
°C
wind,
m/s
gust,
m/s
humid.,
%
clouds,
%
prec.,
mm/h
press.,
hPa
HPBL,
m
17 may, mon
mon1701:00+18ese336790 0.0 101328
04:00+17sse346644 0.0 101444
07:00+17se366728 0.0 101495
10:00+24se51152100 0.0 1015532
13:00+27se61141100 0.0 10141141
16:00+27se7114573 0.0 10141386
19:00+24ese486068 0.0 1013177
22:00+19ese5115587 0.0 1014158
18 may, tue
tue1801:00+18ese5135081 0.0 1013181
04:00+16ese5135073 0.0 1013186
07:00+16ese412645 0.0 1013197
10:00+23ese612495 0.0 1012429
13:00+27se7124321 0.0 10121031
16:00+28se713429 0.0 10111478
19:00+24ese614505 0.0 1011361
22:00+21ese617474 0.0 1011288
19 may, wed
wed1901:00+20ese618465 0.0 1010358
04:00+19ese6174633 0.0 1010383
07:00+18ese617610 0.0 1010388
10:00+24ese7145486 0.0 1010569
13:00+27se7124999 0.0 10091383
16:00+27ese61152100 0.0 10091041
19:00+25e5126065 0.0 1008346
22:00+19se4116679 0.0 1009242
20 may, thu
thu2001:00+17e367699 0.6 1008116
04:00+17se61572100 0.6 1008487
07:00+15ssw71192100 0.0 1011624
10:00+18s6871100 0.0 10131065
13:00+20sse686099 0.0 10141699
16:00+20s6962100 0.1 10151499
19:00+18ssw68720 0.1 1015948
22:00+13ssw38910 0.1 1017171
21 may, fri
fri2101:00+11ssw36949 0.0 1018133
04:00+11ssw339489 0.0 101946
07:00+13ssw2389100 0.0 1019144
10:00+17ssw2271100 0.0 1020590
13:00+21wsw115793 0.0 10201253
16:00+23ne005051 0.0 10201536
19:00+22e115780 0.0 1020657
22:00+17e2267100 0.0 102011